| time (UTC) | temp F | wind direction | speed knots | gust knots | rain 1hr in | rain 24hr in | rain mn in | humidity % | barometer mb |
| 20260509161857 | 52 | 97 | 0.9 | 1.7 | 0.00 | 0.00 | 0.00 | 69 | |
| 20260509161354 | 51 | 90 | 0.9 | 2.6 | 0.00 | 0.00 | 0.00 | 70 | |
| 20260509160849 | 51 | 60 | 0.9 | 1.7 | 0.00 | 0.00 | 0.00 | 70 | |
| 20260509160345 | 52 | 48 | 0.9 | 2.6 | 0.00 | 0.00 | 0.00 | 68 | |
| 20260509155840 | 52 | 10 | 1.7 | 2.6 | 0.00 | 0.00 | 0.00 | 69 | |
| 20260509155337 | 52 | 158 | 0.9 | 1.7 | 0.00 | 0.00 | 0.00 | 69 | |
| 20260509154834 | 52 | 18 | 1.7 | 1.7 | 0.00 | 0.00 | 0.00 | 69 | |
| 20260509154330 | 53 | 127 | 0.9 | 0.9 | 0.00 | 0.00 | 0.00 | 68 | |
| 20260509153827 | 53 | 12 | 2.6 | 2.6 | 0.00 | 0.00 | 0.00 | 68 | |
| 20260509153324 | 52 | 332 | 2.6 | 3.5 | 0.00 | 0.00 | 0.00 | 68 | |
| 20260509152821 | 52 | 42 | 2.6 | 2.6 | 0.00 | 0.00 | 0.00 | 70 | |
| 20260509152317 | 52 | 112 | 0.0 | 0.9 | 0.00 | 0.00 | 0.00 | 70 | |
| 20260509151815 | 52 | 109 | 0.0 | 0.0 | 0.00 | 0.00 | 0.00 | 70 | |
| 20260509151310 | 52 | 108 | 0.0 | 0.0 | 0.00 | 0.00 | 0.00 | 70 | |
| 20260509150809 | 52 | 96 | 0.0 | 0.9 | 0.00 | 0.00 | 0.00 | 69 | |
| 20260509150307 | 52 | 116 | 0.9 | 1.7 | 0.00 | 0.00 | 0.00 | 69 | |
| 20260509145803 | 52 | 108 | 0.9 | 1.7 | 0.00 | 0.00 | 0.00 | 69 | |
| 20260509145306 | 53 | 123 | 0.0 | 0.9 | 0.00 | 0.00 | 0.00 | 70 | |
| 20260509144800 | 53 | 113 | 0.9 | 0.9 | 0.00 | 0.00 | 0.00 | 69 | |
| 20260509144257 | 53 | 104 | 0.9 | 1.7 | 0.00 | 0.00 | 0.00 | 69 | |
| 20260509143754 | 53 | 106 | 0.9 | 2.6 | 0.00 | 0.00 | 0.00 | 69 | |
| 20260509143252 | 53 | 74 | 0.9 | 1.7 | 0.00 | 0.00 | 0.00 | 69 | |
| 20260509142747 | 54 | 95 | 0.0 | 0.9 | 0.00 | 0.00 | 0.00 | 67 | |
| 20260509142243 | 55 | 95 | 0.9 | 1.7 | 0.00 | 0.00 | 0.00 | 63 | |
| 20260509141739 | 55 | 69 | 1.7 | 5.2 | 0.00 | 0.00 | 0.00 | 61 | |
| 20260509141237 | 55 | 62 | 1.7 | 2.6 | 0.00 | 0.00 | 0.00 | 61 | |
| 20260509140733 | 55 | 8 | 3.5 | 3.5 | 0.00 | 0.00 | 0.00 | 61 | |
| 20260509140231 | 56 | 58 | 2.6 | 3.5 | 0.00 | 0.00 | 0.00 | 62 | |
| 20260509135728 | 56 | 34 | 2.6 | 3.5 | 0.00 | 0.00 | 0.00 | 61 | |
| 20260509135226 | 56 | 29 | 2.6 | 3.5 | 0.00 | 0.00 | 0.00 | 62 | |
| 20260509134722 | 56 | 11 | 3.5 | 3.5 | 0.00 | 0.00 | 0.00 | 61 | |
| 20260509134220 | 57 | 8 | 3.5 | 5.2 | 0.00 | 0.00 | 0.00 | 59 | |
| 20260509133717 | 57 | 14 | 2.6 | 3.5 | 0.00 | 0.00 | 0.00 | 59 | |
| 20260509133213 | 57 | 37 | 1.7 | 3.5 | 0.00 | 0.00 | 0.00 | 59 | |
| 20260509132712 | 57 | 7 | 2.6 | 2.6 | 0.00 | 0.00 | 0.00 | 59 | |
| 20260509132210 | 57 | 90 | 0.9 | 1.7 | 0.00 | 0.00 | 0.00 | 60 | |
| 20260509131706 | 57 | 26 | 2.6 | 2.6 | 0.00 | 0.00 | 0.00 | 59 | |
| 20260509131203 | 57 | 30 | 1.7 | 2.6 | 0.00 | 0.00 | 0.00 | 58 | |
| 20260509130659 | 58 | 358 | 3.5 | 3.5 | 0.00 | 0.00 | 0.00 | 57 | |
| 20260509130155 | 58 | 19 | 3.5 | 3.5 | 0.00 | 0.00 | 0.00 | 57 | |
| 20260509125652 | 58 | 61 | 1.7 | 2.6 | 0.00 | 0.00 | 0.00 | 57 | |
| 20260509125149 | 59 | 56 | 2.6 | 3.5 | 0.00 | 0.00 | 0.00 | 54 | |
| 20260509124645 | 59 | 22 | 3.5 | 6.1 | 0.00 | 0.00 | 0.00 | 53 | |
| 20260509124142 | 59 | 27 | 2.6 | 5.2 | 0.00 | 0.00 | 0.00 | 53 | |
| 20260509123640 | 59 | 55 | 0.9 | 2.6 | 0.00 | 0.00 | 0.00 | 54 | |
| 20260509123137 | 59 | 61 | 1.7 | 1.7 | 0.00 | 0.00 | 0.00 | 55 | |
| 20260509122632 | 59 | 62 | 1.7 | 3.5 | 0.00 | 0.00 | 0.00 | 56 | |
| 20260509122130 | 59 | 74 | 1.7 | 2.6 | 0.00 | 0.00 | 0.00 | 56 | |
| 20260509121626 | 60 | 36 | 2.6 | 6.1 | 0.00 | 0.00 | 0.00 | 55 | |
| 20260509121124 | 60 | 28 | 3.5 | 5.2 | 0.00 | 0.00 | 0.00 | 52 | |
| 20260509120622 | 60 | 21 | 1.7 | 5.2 | 0.00 | 0.00 | 0.00 | 51 | |
| 20260509120120 | 61 | 64 | 0.9 | 2.6 | 0.00 | 0.00 | 0.00 | 50 | |
| 20260509115617 | 61 | 9 | 2.6 | 5.2 | 0.00 | 0.00 | 0.00 | 49 | |
| 20260509115114 | 61 | 41 | 1.7 | 7.0 | 0.00 | 0.00 | 0.00 | 48 | |
| 20260509114612 | 61 | 60 | 5.2 | 7.0 | 0.00 | 0.00 | 0.00 | 48 | |
| 20260509114111 | 62 | 355 | 3.5 | 5.2 | 0.00 | 0.00 | 0.00 | 48 | |
| 20260509113609 | 62 | 4 | 5.2 | 7.0 | 0.00 | 0.00 | 0.00 | 47 | |
| 20260509113106 | 62 | 5 | 1.7 | 2.6 | 0.00 | 0.00 | 0.00 | 48 | |
| 20260509112603 | 62 | 69 | 1.7 | 3.5 | 0.00 | 0.00 | 0.00 | 48 | |
| 20260509112100 | 62 | 43 | 2.6 | 5.2 | 0.00 | 0.00 | 0.00 | 48 | |
| 20260509111557 | 62 | 65 | 2.6 | 3.5 | 0.00 | 0.00 | 0.00 | 47 | |
| 20260509111054 | 62 | 69 | 1.7 | 5.2 | 0.00 | 0.00 | 0.00 | 47 | |
| 20260509110551 | 62 | 57 | 2.6 | 8.7 | 0.00 | 0.00 | 0.00 | 47 | |
| 20260509110048 | 62 | 73 | 0.9 | 3.5 | 0.00 | 0.00 | 0.00 | 49 | |
| 20260509105546 | 63 | 32 | 3.5 | 5.2 | 0.00 | 0.00 | 0.00 | 49 | |
| 20260509105043 | 63 | 15 | 2.6 | 3.5 | 0.00 | 0.00 | 0.00 | 48 | |
| 20260509104540 | 64 | 58 | 1.7 | 5.2 | 0.00 | 0.00 | 0.00 | 45 | |
| 20260509104037 | 64 | 48 | 1.7 | 7.0 | 0.00 | 0.00 | 0.00 | 45 | |
| 20260509103535 | 64 | 27 | 3.5 | 5.2 | 0.00 | 0.00 | 0.00 | 46 | |
| 20260509103033 | 64 | 59 | 4.3 | 6.1 | 0.00 | 0.00 | 0.00 | 45 | |
| 20260509102530 | 64 | 89 | 1.7 | 3.5 | 0.00 | 0.00 | 0.00 | 44 | |
| 20260509102026 | 64 | 347 | 5.2 | 7.0 | 0.00 | 0.00 | 0.00 | 45 | |
| 20260509101523 | 64 | 67 | 4.3 | 7.0 | 0.00 | 0.00 | 0.00 | 44 | |
| 20260509101020 | 64 | 8 | 5.2 | 6.1 | 0.00 | 0.00 | 0.00 | 45 | |
| 20260509100517 | 65 | 34 | 4.3 | 7.8 | 0.00 | 0.00 | 0.00 | 44 | |
| 20260509100014 | 65 | 9 | 5.2 | 7.8 | 0.00 | 0.00 | 0.00 | 43 | |
| 20260509095511 | 65 | 79 | 4.3 | 6.1 | 0.00 | 0.00 | 0.00 | 43 | |
| 20260509095008 | 65 | 42 | 2.6 | 7.8 | 0.00 | 0.00 | 0.00 | 42 | |
| 20260509094504 | 65 | 77 | 1.7 | 7.8 | 0.00 | 0.00 | 0.00 | 42 | |
| 20260509094002 | 65 | 56 | 5.2 | 7.8 | 0.00 | 0.00 | 0.00 | 42 | |
| 20260509093500 | 66 | 56 | 1.7 | 5.2 | 0.00 | 0.00 | 0.00 | 42 | |
| 20260509092957 | 66 | 82 | 4.3 | 7.0 | 0.00 | 0.00 | 0.00 | 41 | |
| 20260509092455 | 66 | 94 | 0.9 | 6.1 | 0.00 | 0.00 | 0.00 | 41 | |
| 20260509091953 | 67 | 40 | 2.6 | 5.2 | 0.00 | 0.00 | 0.00 | 40 | |
| 20260509091450 | 67 | 85 | 2.6 | 3.5 | 0.00 | 0.00 | 0.00 | 40 | |
| 20260509090947 | 67 | 54 | 2.6 | 6.1 | 0.00 | 0.00 | 0.00 | 38 | |
| 20260509090444 | 67 | 60 | 3.5 | 7.0 | 0.00 | 0.00 | 0.00 | 38 | |
| 20260509085942 | 67 | 55 | 2.6 | 8.7 | 0.00 | 0.00 | 0.00 | 37 | |
| 20260509085438 | 67 | 93 | 4.3 | 6.1 | 0.00 | 0.00 | 0.00 | 38 | |
| 20260509084935 | 67 | 39 | 3.5 | 6.1 | 0.00 | 0.00 | 0.00 | 38 | |
| 20260509084431 | 67 | 36 | 4.3 | 7.0 | 0.00 | 0.00 | 0.00 | 36 | |
| 20260509083929 | 68 | 79 | 1.7 | 9.6 | 0.00 | 0.00 | 0.00 | 37 | |
| 20260509083426 | 68 | 34 | 5.2 | 13.9 | 0.00 | 0.00 | 0.00 | 36 | |
| 20260509082923 | 68 | 36 | 5.2 | 8.7 | 0.00 | 0.00 | 0.00 | 36 | |
| 20260509082420 | 69 | 43 | 7.8 | 13.0 | 0.00 | 0.00 | 0.00 | 36 | |
| 20260509081917 | 68 | 90 | 7.0 | 11.3 | 0.00 | 0.00 | 0.00 | 36 | |
| 20260509081414 | 69 | 74 | 6.1 | 12.2 | 0.00 | 0.00 | 0.00 | 34 | |
| 20260509080911 | 69 | 52 | 7.8 | 14.8 | 0.00 | 0.00 | 0.00 | 33 | |
| 20260509080409 | 69 | 17 | 7.8 | 11.3 | 0.00 | 0.00 | 0.00 | 34 | |
| 20260509075908 | 69 | 41 | 7.8 | 11.3 | 0.00 | 0.00 | 0.00 | 35 | |
| 20260509075404 | 69 | 24 | 6.1 | 8.7 | 0.00 | 0.00 | 0.00 | 35 | |
| 20260509074902 | 69 | 48 | 5.2 | 9.6 | 0.00 | 0.00 | 0.00 | 34 | |
| 20260509074359 | 69 | 59 | 7.8 | 12.2 | 0.00 | 0.00 | 0.00 | 33 | |
| 20260509073855 | 70 | 68 | 5.2 | 11.3 | 0.00 | 0.00 | 0.00 | 33 | |
| 20260509073352 | 70 | 93 | 5.2 | 12.2 | 0.00 | 0.00 | 0.00 | 34 | |
| 20260509072848 | 70 | 183 | 4.3 | 9.6 | 0.00 | 0.00 | 0.00 | 33 | |
| 20260509072345 | 70 | 29 | 7.8 | 9.6 | 0.00 | 0.00 | 0.00 | 32 | |
| 20260509071841 | 70 | 1 | 7.8 | 11.3 | 0.00 | 0.00 | 0.00 | 32 | |
| 20260509071338 | 70 | 46 | 8.7 | 13.9 | 0.00 | 0.00 | 0.00 | 32 | |
| 20260509070836 | 70 | 18 | 7.8 | 19.1 | 0.00 | 0.00 | 0.00 | 30 | |
| 20260509070332 | 70 | 68 | 7.0 | 13.9 | 0.00 | 0.00 | 0.00 | 30 | |
| 20260509065829 | 70 | 85 | 6.1 | 13.0 | 0.00 | 0.00 | 0.00 | 30 | |
| 20260509065325 | 70 | 61 | 9.6 | 15.6 | 0.00 | 0.00 | 0.00 | 31 | |
| 20260509064821 | 70 | 70 | 5.2 | 15.6 | 0.00 | 0.00 | 0.00 | 29 | |
| 20260509064319 | 71 | 81 | 7.8 | 13.0 | 0.00 | 0.00 | 0.00 | 29 | |
| 20260509063816 | 71 | 91 | 7.0 | 13.9 | 0.00 | 0.00 | 0.00 | 29 | |
| 20260509063312 | 71 | 27 | 8.7 | 12.2 | 0.00 | 0.00 | 0.00 | 29 | |
| 20260509062810 | 71 | 94 | 6.1 | 12.2 | 0.00 | 0.00 | 0.00 | 29 | |
| 20260509062307 | 70 | 30 | 12.2 | 20.0 | 0.00 | 0.00 | 0.00 | 28 | |
| 20260509061804 | 70 | 79 | 7.0 | 11.3 | 0.00 | 0.00 | 0.00 | 31 | |
| 20260509061302 | 70 | 133 | 7.8 | 15.6 | 0.00 | 0.00 | 0.00 | 30 | |
| 20260509060758 | 70 | 57 | 8.7 | 20.0 | 0.00 | 0.00 | 0.00 | 30 | |
| 20260509060255 | 70 | 78 | 11.3 | 14.8 | 0.00 | 0.00 | 0.00 | 29 | |
| 20260509055751 | 70 | 133 | 10.4 | 13.9 | 0.00 | 0.00 | 0.00 | 30 | |
| 20260509055247 | 70 | 50 | 7.0 | 13.9 | 0.00 | 0.00 | 0.00 | 31 | |
| 20260509054743 | 71 | 50 | 5.2 | 9.6 | 0.00 | 0.00 | 0.00 | 32 | |
| 20260509054240 | 71 | 70 | 12.2 | 18.2 | 0.00 | 0.00 | 0.00 | 30 | |
| 20260509053739 | 70 | 70 | 6.1 | 13.9 | 0.00 | 0.00 | 0.00 | 31 | |
| 20260509053235 | 70 | 81 | 7.8 | 15.6 | 0.00 | 0.00 | 0.00 | 33 | |
| 20260509052733 | 70 | 25 | 12.2 | 14.8 | 0.00 | 0.00 | 0.00 | 33 | |
| 20260509052231 | 70 | 69 | 8.7 | 14.8 | 0.00 | 0.00 | 0.00 | 33 | |
| 20260509051728 | 71 | 354 | 10.4 | 13.0 | 0.00 | 0.00 | 0.00 | 32 | |
| 20260509051226 | 70 | 63 | 5.2 | 13.0 | 0.00 | 0.00 | 0.00 | 33 | |
| 20260509050722 | 70 | 18 | 7.0 | 14.8 | 0.00 | 0.00 | 0.00 | 35 | |
| 20260509050219 | 70 | 45 | 7.8 | 11.3 | 0.00 | 0.00 | 0.00 | 35 | |
| 20260509045716 | 69 | 5 | 7.8 | 14.8 | 0.00 | 0.00 | 0.00 | 35 | |
| 20260509045213 | 69 | 54 | 11.3 | 19.1 | 0.00 | 0.00 | 0.00 | 36 | |
| 20260509044710 | 69 | 105 | 4.3 | 16.5 | 0.00 | 0.00 | 0.00 | 36 | |
| 20260509044208 | 69 | 40 | 10.4 | 19.1 | 0.00 | 0.00 | 0.00 | 36 | |
| 20260509043704 | 70 | 40 | 7.8 | 18.2 | 0.00 | 0.00 | 0.00 | 35 | |
| 20260509043200 | 69 | 3 | 5.2 | 14.8 | 0.00 | 0.00 | 0.00 | 36 | |
| 20260509042656 | 69 | 37 | 7.8 | 12.2 | 0.00 | 0.00 | 0.00 | 35 | |
| 20260509042153 | 69 | 61 | 7.8 | 19.1 | 0.00 | 0.00 | 0.00 | 35 | |
| 20260509041649 | 69 | 20 | 10.4 | 23.5 | 0.00 | 0.00 | 0.00 | 37 | |
| 20260509041147 | 69 | 79 | 9.6 | 19.1 | 0.00 | 0.00 | 0.00 | 36 | |
| 20260509040645 | 70 | 90 | 10.4 | 13.9 | 0.00 | 0.00 | 0.00 | 35 | |
| 20260509040142 | 69 | 11 | 7.0 | 12.2 | 0.00 | 0.00 | 0.00 | 38 | |
| 20260509035639 | 68 | 19 | 9.6 | 22.6 | 0.00 | 0.00 | 0.00 | 37 | |
| 20260509035135 | 69 | 52 | 8.7 | 16.5 | 0.00 | 0.00 | 0.00 | 37 | |
| 20260509034633 | 69 | 358 | 7.8 | 13.0 | 0.00 | 0.00 | 0.00 | 38 | |
| 20260509034130 | 69 | 128 | 10.4 | 14.8 | 0.00 | 0.00 | 0.00 | 38 | |
| 20260509033627 | 68 | 67 | 10.4 | 16.5 | 0.00 | 0.00 | 0.00 | 39 | |
| 20260509033124 | 68 | 79 | 6.1 | 18.2 | 0.00 | 0.00 | 0.00 | 39 | |
| 20260509032621 | 69 | 25 | 9.6 | 20.0 | 0.00 | 0.00 | 0.00 | 39 | |
| 20260509032118 | 68 | 34 | 6.1 | 14.8 | 0.00 | 0.00 | 0.00 | 41 | |
| 20260509031616 | 67 | 60 | 7.8 | 18.2 | 0.00 | 0.00 | 0.00 | 39 | |
| 20260509031113 | 68 | 29 | 9.6 | 20.0 | 0.00 | 0.00 | 0.00 | 40 | |
| 20260509030611 | 68 | 125 | 7.8 | 16.5 | 0.00 | 0.00 | 0.00 | 41 | |
| 20260509030108 | 68 | 324 | 6.1 | 12.2 | 0.00 | 0.00 | 0.00 | 42 | |
| 20260509025604 | 68 | 236 | 5.2 | 16.5 | 0.00 | 0.00 | 0.00 | 40 | |
| 20260509025059 | 68 | 126 | 5.2 | 16.5 | 0.00 | 0.00 | 0.00 | 42 | |
| 20260509024555 | 68 | 20 | 8.7 | 18.2 | 0.00 | 0.00 | 0.00 | 41 | |
| 20260509024052 | 67 | 29 | 9.6 | 21.7 | 0.00 | 0.00 | 0.00 | 41 | |
| 20260509023550 | 67 | 313 | 9.6 | 16.5 | 0.00 | 0.00 | 0.00 | 40 | |
| 20260509023046 | 67 | 45 | 8.7 | 15.6 | 0.00 | 0.00 | 0.00 | 41 | |
| 20260509022542 | 67 | 44 | 9.6 | 14.8 | 0.00 | 0.00 | 0.00 | 41 | |
| 20260509022041 | 67 | 66 | 7.8 | 14.8 | 0.00 | 0.00 | 0.00 | 41 | |
| 20260509021537 | 67 | 103 | 10.4 | 18.2 | 0.00 | 0.00 | 0.00 | 42 | |
| 20260509021034 | 67 | 52 | 8.7 | 13.0 | 0.00 | 0.00 | 0.00 | 42 | |
| 20260509020533 | 66 | 91 | 3.5 | 12.2 | 0.00 | 0.00 | 0.00 | 43 | |
| 20260509020029 | 67 | 64 | 9.6 | 12.2 | 0.00 | 0.00 | 0.00 | 46 | |
| 20260509015528 | 66 | 17 | 5.2 | 14.8 | 0.00 | 0.00 | 0.00 | 45 | |
| 20260509015025 | 66 | 344 | 7.8 | 13.0 | 0.00 | 0.00 | 0.00 | 44 | |
| 20260509014522 | 66 | 108 | 6.1 | 13.9 | 0.00 | 0.00 | 0.00 | 45 | |
| 20260509014018 | 65 | 22 | 12.2 | 15.6 | 0.00 | 0.00 | 0.00 | 46 | |
| 20260509013515 | 65 | 34 | 9.6 | 13.0 | 0.00 | 0.00 | 0.00 | 46 | |
| 20260509013011 | 65 | 5 | 12.2 | 16.5 | 0.00 | 0.00 | 0.00 | 47 | |
| 20260509012508 | 65 | 42 | 4.3 | 14.8 | 0.00 | 0.00 | 0.00 | 47 | |
| 20260509012004 | 64 | 33 | 7.8 | 13.9 | 0.00 | 0.00 | 0.00 | 48 | |
| 20260509011502 | 65 | 26 | 12.2 | 13.9 | 0.00 | 0.00 | 0.00 | 47 | |
| 20260509010959 | 65 | 47 | 13.9 | 21.7 | 0.00 | 0.00 | 0.00 | 46 | |
| 20260509010457 | 64 | 40 | 6.1 | 12.2 | 0.00 | 0.00 | 0.00 | 50 | |
| 20260509005953 | 64 | 27 | 8.7 | 12.2 | 0.00 | 0.00 | 0.00 | 49 | |
| 20260509005452 | 63 | 53 | 7.8 | 12.2 | 0.00 | 0.00 | 0.00 | 49 | |
| 20260509004951 | 63 | 66 | 3.5 | 7.0 | 0.00 | 0.00 | 0.00 | 50 | |
| 20260509004449 | 63 | 27 | 12.2 | 13.0 | 0.00 | 0.00 | 0.00 | 50 | |
| 20260509003946 | 63 | 94 | 2.6 | 8.7 | 0.00 | 0.00 | 0.00 | 51 | |
| 20260509003444 | 62 | 3 | 7.0 | 11.3 | 0.00 | 0.00 | 0.00 | 51 | |
| 20260509002940 | 62 | 40 | 7.0 | 11.3 | 0.00 | 0.00 | 0.00 | 52 | |
| 20260509002439 | 62 | 0 | 4.3 | 11.3 | 0.00 | 0.00 | 0.00 | 53 | |
| 20260509001935 | 63 | 58 | 6.1 | 12.2 | 0.00 | 0.00 | 0.00 | 51 | |
| 20260509001432 | 63 | 30 | 3.5 | 7.8 | 0.00 | 0.00 | 0.00 | 51 | |
| 20260509000929 | 63 | 36 | 7.8 | 9.6 | 0.00 | 0.00 | 0.00 | 50 | |
| 20260509000427 | 62 | 106 | 4.3 | 13.9 | 0.00 | 0.00 | 0.00 | 50 | |
| 20260508235922 | 62 | 73 | 7.8 | 14.8 | 0.00 | 0.00 | 0.00 | 50 | |
| 20260508235420 | 61 | 28 | 11.3 | 15.6 | 0.00 | 0.00 | 0.00 | 51 | |
| 20260508234917 | 61 | 37 | 8.7 | 18.2 | 0.00 | 0.00 | 0.00 | 51 | |
| 20260508234414 | 62 | 78 | 6.1 | 14.8 | 0.00 | 0.00 | 0.00 | 52 | |
| 20260508233911 | 62 | 98 | 6.1 | 12.2 | 0.00 | 0.00 | 0.00 | 51 | |
| 20260508233411 | 61 | 24 | 9.6 | 13.0 | 0.00 | 0.00 | 0.00 | 51 | |
| 20260508232907 | 61 | 16 | 9.6 | 14.8 | 0.00 | 0.00 | 0.00 | 52 | |
| 20260508232404 | 61 | 41 | 7.0 | 13.0 | 0.00 | 0.00 | 0.00 | 53 | |
| 20260508231902 | 61 | 48 | 3.5 | 9.6 | 0.00 | 0.00 | 0.00 | 54 | |
| 20260508231359 | 61 | 108 | 8.7 | 21.7 | 0.00 | 0.00 | 0.00 | 53 | |
| 20260508230855 | 61 | 38 | 7.8 | 16.5 | 0.00 | 0.00 | 0.00 | 53 | |
| 20260508230351 | 60 | 340 | 7.0 | 12.2 | 0.00 | 0.00 | 0.00 | 55 | |
| 20260508225849 | 60 | 1 | 6.1 | 8.7 | 0.00 | 0.00 | 0.00 | 54 | |
| 20260508225345 | 60 | 58 | 6.1 | 11.3 | 0.00 | 0.00 | 0.00 | 55 | |
| 20260508224843 | 60 | 16 | 5.2 | 15.6 | 0.00 | 0.00 | 0.00 | 55 | |
| 20260508224340 | 60 | 28 | 3.5 | 13.0 | 0.00 | 0.00 | 0.00 | 56 | |
| 20260508223838 | 60 | 28 | 4.3 | 9.6 | 0.00 | 0.00 | 0.00 | 56 | |
| 20260508223335 | 59 | 34 | 5.2 | 12.2 | 0.00 | 0.00 | 0.00 | 56 | |
| 20260508222833 | 59 | 90 | 9.6 | 13.0 | 0.00 | 0.00 | 0.00 | 56 | |
| 20260508222330 | 59 | 66 | 6.1 | 13.9 | 0.00 | 0.00 | 0.00 | 58 | |
| 20260508221826 | 59 | 9 | 5.2 | 11.3 | 0.00 | 0.00 | 0.00 | 57 | |
| 20260508221322 | 59 | 24 | 13.9 | 16.5 | 0.00 | 0.00 | 0.00 | 57 | |
| 20260508220819 | 59 | 6 | 11.3 | 15.6 | 0.00 | 0.00 | 0.00 | 57 | |
| 20260508220315 | 59 | 21 | 3.5 | 7.8 | 0.00 | 0.00 | 0.00 | 57 | |
| 20260508215812 | 59 | 315 | 10.4 | 16.5 | 0.00 | 0.00 | 0.00 | 56 | |
| 20260508215308 | 59 | 77 | 9.6 | 13.9 | 0.00 | 0.00 | 0.00 | 56 | |
| 20260508214805 | 59 | 47 | 7.8 | 13.9 | 0.00 | 0.00 | 0.00 | 56 | |
| 20260508214302 | 59 | 32 | 11.3 | 15.6 | 0.00 | 0.00 | 0.00 | 56 | |
| 20260508213759 | 59 | 14 | 7.8 | 14.8 | 0.00 | 0.00 | 0.00 | 56 | |
| 20260508213256 | 58 | 10 | 10.4 | 14.8 | 0.00 | 0.00 | 0.00 | 56 | |
| 20260508212752 | 58 | 39 | 6.1 | 12.2 | 0.00 | 0.00 | 0.00 | 57 | |
| 20260508212248 | 58 | 33 | 8.7 | 12.2 | 0.00 | 0.00 | 0.00 | 58 | |
| 20260508211744 | 58 | 42 | 11.3 | 14.8 | 0.00 | 0.00 | 0.00 | 57 | |
| 20260508211240 | 57 | 48 | 6.1 | 9.6 | 0.00 | 0.00 | 0.00 | 58 | |
| 20260508210738 | 57 | 32 | 3.5 | 9.6 | 0.00 | 0.00 | 0.00 | 59 | |
| 20260508210235 | 57 | 91 | 2.6 | 9.6 | 0.00 | 0.00 | 0.00 | 59 | |
| 20260508205731 | 57 | 59 | 7.8 | 15.6 | 0.00 | 0.00 | 0.00 | 58 | |
| 20260508205228 | 57 | 25 | 5.2 | 13.0 | 0.00 | 0.00 | 0.00 | 57 | |
| 20260508204724 | 58 | 39 | 3.5 | 12.2 | 0.00 | 0.00 | 0.00 | 58 | |
| 20260508204221 | 58 | 109 | 7.8 | 12.2 | 0.00 | 0.00 | 0.00 | 57 | |
| 20260508203717 | 58 | 40 | 5.2 | 14.8 | 0.00 | 0.00 | 0.00 | 57 | |
| 20260508203213 | 58 | 21 | 7.0 | 13.0 | 0.00 | 0.00 | 0.00 | 58 | |
| 20260508202709 | 58 | 6 | 6.1 | 12.2 | 0.00 | 0.00 | 0.00 | 57 | |
| 20260508202207 | 58 | 52 | 5.2 | 13.0 | 0.00 | 0.00 | 0.00 | 57 | |
| 20260508201703 | 58 | 23 | 7.0 | 13.0 | 0.00 | 0.00 | 0.00 | 57 | |
| 20260508201200 | 58 | 11 | 8.7 | 12.2 | 0.00 | 0.00 | 0.00 | 56 | |
| 20260508200657 | 58 | 344 | 6.1 | 12.2 | 0.00 | 0.00 | 0.00 | 55 | |
| 20260508200153 | 58 | 17 | 8.7 | 12.2 | 0.00 | 0.00 | 0.00 | 54 | |
| 20260508195650 | 58 | 12 | 10.4 | 15.6 | 0.00 | 0.00 | 0.00 | 54 | |
| 20260508195146 | 58 | 29 | 3.5 | 11.3 | 0.00 | 0.00 | 0.00 | 54 | |
| 20260508194643 | 58 | 6 | 13.0 | 19.1 | 0.00 | 0.00 | 0.00 | 53 | |
| 20260508194140 | 58 | 47 | 4.3 | 13.0 | 0.00 | 0.00 | 0.00 | 53 | |
| 20260508193636 | 58 | 102 | 5.2 | 13.0 | 0.00 | 0.00 | 0.00 | 53 | |
| 20260508193133 | 58 | 5 | 6.1 | 18.2 | 0.00 | 0.00 | 0.00 | 53 | |
| 20260508192630 | 58 | 52 | 6.1 | 19.1 | 0.00 | 0.00 | 0.00 | 53 | |
| 20260508192128 | 58 | 0 | 8.7 | 13.0 | 0.00 | 0.00 | 0.00 | 53 | |
| 20260508191624 | 58 | 343 | 8.7 | 14.8 | 0.00 | 0.00 | 0.00 | 54 | |
| 20260508191121 | 59 | 38 | 10.4 | 18.2 | 0.00 | 0.00 | 0.00 | 53 | |
| 20260508190619 | 59 | 8 | 13.0 | 20.0 | 0.00 | 0.00 | 0.00 | 52 | |
| 20260508190114 | 59 | 41 | 10.4 | 14.8 | 0.00 | 0.00 | 0.00 | 51 | |
| 20260508185611 | 59 | 31 | 7.0 | 13.0 | 0.00 | 0.00 | 0.00 | 50 | |
| 20260508185109 | 59 | 39 | 7.0 | 13.0 | 0.00 | 0.00 | 0.00 | 49 | |
| 20260508184606 | 59 | 37 | 8.7 | 13.0 | 0.00 | 0.00 | 0.00 | 49 | |
| 20260508184103 | 59 | 0 | 9.6 | 15.6 | 0.00 | 0.00 | 0.00 | 49 | |
| 20260508183559 | 59 | 39 | 3.5 | 11.3 | 0.00 | 0.00 | 0.00 | 49 | |
| 20260508183055 | 59 | 64 | 6.1 | 7.8 | 0.00 | 0.00 | 0.00 | 51 | |
| 20260508182552 | 59 | 8 | 7.0 | 8.7 | 0.00 | 0.00 | 0.00 | 51 | |
| 20260508182049 | 59 | 0 | 4.3 | 7.8 | 0.00 | 0.00 | 0.00 | 51 | |
| 20260508181543 | 59 | 23 | 5.2 | 13.0 | 0.00 | 0.00 | 0.00 | 51 | |
| 20260508181042 | 59 | 23 | 4.3 | 7.8 | 0.00 | 0.00 | 0.00 | 51 | |
| 20260508180538 | 59 | 11 | 5.2 | 8.7 | 0.00 | 0.00 | 0.00 | 52 | |
| 20260508180034 | 58 | 7 | 7.8 | 8.7 | 0.00 | 0.00 | 0.00 | 52 | |
| 20260508175531 | 58 | 351 | 5.2 | 8.7 | 0.00 | 0.00 | 0.00 | 54 | |
| 20260508175028 | 58 | 76 | 4.3 | 7.8 | 0.00 | 0.00 | 0.00 | 54 | |
| 20260508174526 | 58 | 3 | 4.3 | 8.7 | 0.00 | 0.00 | 0.00 | 54 | |
| 20260508174023 | 58 | 18 | 2.6 | 9.6 | 0.00 | 0.00 | 0.00 | 54 | |
| 20260508173520 | 58 | 66 | 4.3 | 5.2 | 0.00 | 0.00 | 0.00 | 54 | |
| 20260508173015 | 58 | 43 | 5.2 | 6.1 | 0.00 | 0.00 | 0.00 | 55 | |
| 20260508172513 | 58 | 73 | 0.9 | 5.2 | 0.00 | 0.00 | 0.00 | 55 | |
| 20260508172009 | 58 | 86 | 3.5 | 6.1 | 0.00 | 0.00 | 0.00 | 55 | |
| 20260508171506 | 58 | 17 | 3.5 | 6.1 | 0.00 | 0.00 | 0.00 | 55 | |
| 20260508171002 | 58 | 7 | 5.2 | 7.8 | 0.00 | 0.00 | 0.00 | 55 | |
| 20260508170500 | 58 | 35 | 2.6 | 5.2 | 0.00 | 0.00 | 0.00 | 55 | |
| 20260508165956 | 58 | 83 | 0.9 | 3.5 | 0.00 | 0.00 | 0.00 | 55 | |
| 20260508165455 | 58 | 66 | 3.5 | 5.2 | 0.00 | 0.00 | 0.00 | 55 | |
| 20260508164950 | 58 | 71 | 3.5 | 5.2 | 0.00 | 0.00 | 0.00 | 55 | |
| 20260508164447 | 58 | 76 | 2.6 | 3.5 | 0.00 | 0.00 | 0.00 | 56 | |
| 20260508163944 | 58 | 9 | 3.5 | 7.0 | 0.00 | 0.00 | 0.00 | 56 | |
| 20260508163442 | 58 | 77 | 2.6 | 6.1 | 0.00 | 0.00 | 0.00 | 55 | |
| 20260508162937 | 58 | 18 | 3.5 | 6.1 | 0.00 | 0.00 | 0.00 | 56 | |
| 20260508162435 | 58 | 5 | 4.3 | 7.0 | 0.00 | 0.00 | 0.00 | 56 |